When you browse on this site, cookies collect data to enhance your experience and personalize the content and advertising you see.
Visit our Privacy Policy to learn more. By continuing to use the site, you agree to this use of cookies and data.
  • In Hungary
  • List of Countries
  • For 7 days
  • Water Temperature
  • Weather Map
  • News
  • Weather Widgets
  • user-avatar
    Login

    Hourly Weather Nevelichka

    Today, 24 January, Friday

    Time Temperature Precipitation Wind Pressure Humidity
    00:00 -10°C° 0 mm 3 mps 744 mmHg 84%
    01:00 -10°C° 0 mm 3 mps 745 mmHg 85%
    02:00 -10°C° 0 mm 3 mps 745 mmHg 86%
    03:00 -12°C° 0 mm 3 mps 745 mmHg 88%
    04:00 -12°C° 0 mm 3 mps 745 mmHg 88%
    05:00 -12°C° 0 mm 3 mps 745 mmHg 89%
    06:00 -13°C° 0 mm 3 mps 745 mmHg 90%
    07:00 -12°C° 0 mm 3 mps 745 mmHg 90%
    08:00 -12°C° 0 mm 3 mps 745 mmHg 91%
    09:00 -12°C° 0 mm 3 mps 745 mmHg 92%
    10:00 -11°C° 0 mm 4 mps 745 mmHg 89%
    11:00 -10°C° 0 mm 4 mps 744 mmHg 87%
    12:00 -10°C° 0 mm 5 mps 744 mmHg 85%
    13:00 -10°C° 0 mm 5 mps 743 mmHg 86%
    14:00 -9°C° 0 mm 6 mps 742 mmHg 88%
    15:00 -9°C° 0 mm 6 mps 741 mmHg 89%
    16:00 -8°C° 0.5 mm 6 mps 741 mmHg 91%
    17:00 -7°C° 0.5 mm 7 mps 740 mmHg 92%
    18:00 -7°C° 0.5 mm 7 mps 740 mmHg 94%
    19:00 -6°C° 0.3 mm 7 mps 739 mmHg 94%
    20:00 -6°C° 0.3 mm 7 mps 738 mmHg 95%
    21:00 -4°C° 0.3 mm 7 mps 738 mmHg 95%
    22:00 -4°C° 0.6 mm 6 mps 737 mmHg 96%
    23:00 -3°C° 0.6 mm 6 mps 736 mmHg 96%

    Tomorrow, 25 January, Saturday

    Time Temperature Precipitation Wind Pressure Humidity
    00:00 -3°C° 0.6 mm 6 mps 736 mmHg 97%
    01:00 -2°C° 0.5 mm 6 mps 736 mmHg 97%
    02:00 -2°C° 0.5 mm 6 mps 736 mmHg 97%
    03:00 -2°C° 0.5 mm 6 mps 735 mmHg 97%
    04:00 -2°C° 0.2 mm 6 mps 735 mmHg 97%
    05:00 -1°C° 0.2 mm 5 mps 735 mmHg 97%
    06:00 -1°C° 0.2 mm 5 mps 735 mmHg 97%
    07:00 -1°C° 0.2 mm 5 mps 735 mmHg 96%
    08:00 -2°C° 0.2 mm 6 mps 735 mmHg 96%
    09:00 -2°C° 0.2 mm 6 mps 735 mmHg 95%
    10:00 -2°C° 0.1 mm 6 mps 736 mmHg 93%
    11:00 -1°C° 0.1 mm 5 mps 736 mmHg 92%
    12:00 -1°C° 0.1 mm 5 mps 736 mmHg 90%
    13:00 -1°C° 0 mm 5 mps 736 mmHg 90%
    14:00 -1°C° 0 mm 5 mps 735 mmHg 90%
    15:00 -1°C° 0 mm 5 mps 735 mmHg 91%
    16:00 -2°C° 0.2 mm 6 mps 734 mmHg 92%
    17:00 -2°C° 0.2 mm 6 mps 734 mmHg 94%
    18:00 -2°C° 0.2 mm 7 mps 733 mmHg 95%
    19:00 -3°C° 0.4 mm 7 mps 733 mmHg 90%
    20:00 -4°C° 0.4 mm 8 mps 733 mmHg 85%
    21:00 -4°C° 0.4 mm 8 mps 733 mmHg 79%
    22:00 -5°C° 0 mm 8 mps 733 mmHg 79%
    23:00 -6°C° 0 mm 7 mps 734 mmHg 79%

    Day after tomorrow, 26 January, Sunday

    Time Temperature Precipitation Wind Pressure Humidity
    00:00 -6°C° 0 mm 7 mps 735 mmHg 79%
    01:00 -7°C° 0 mm 7 mps 735 mmHg 80%
    02:00 -7°C° 0 mm 7 mps 736 mmHg 81%
    03:00 -7°C° 0 mm 7 mps 736 mmHg 81%
    04:00 -7°C° 0 mm 7 mps 737 mmHg 83%
    05:00 -7°C° 0 mm 7 mps 737 mmHg 84%
    06:00 -7°C° 0 mm 7 mps 738 mmHg 85%
    07:00 -7°C° 0 mm 7 mps 739 mmHg 85%
    08:00 -7°C° 0 mm 7 mps 740 mmHg 85%
    09:00 -7°C° 0 mm 7 mps 741 mmHg 84%
    10:00 -7°C° 0 mm 7 mps 742 mmHg 83%
    11:00 -6°C° 0 mm 6 mps 743 mmHg 83%
    12:00 -5°C° 0 mm 6 mps 744 mmHg 82%
    13:00 -5°C° 0 mm 6 mps 745 mmHg 81%
    14:00 -5°C° 0 mm 5 mps 745 mmHg 81%
    15:00 -5°C° 0 mm 5 mps 746 mmHg 81%
    16:00 -6°C° 0 mm 5 mps 746 mmHg 83%
    17:00 -7°C° 0 mm 4 mps 747 mmHg 84%
    18:00 -6°C° 0 mm 3 mps 747 mmHg 86%
    19:00 -6°C° 0 mm 3 mps 747 mmHg 87%
    20:00 -7°C° 0 mm 4 mps 747 mmHg 88%
    21:00 -7°C° 0 mm 4 mps 747 mmHg 89%
    22:00 -7°C° 0 mm 4 mps 747 mmHg 90%
    23:00 -6°C° 0 mm 5 mps 746 mmHg 90%

    27 January, Monday

    Time Temperature Precipitation Wind Pressure Humidity
    00:00 -6°C° 0 mm 6 mps 746 mmHg 91%
    01:00 -5°C° 0.2 mm 6 mps 745 mmHg 92%
    02:00 -5°C° 0.2 mm 6 mps 745 mmHg 93%
    03:00 -4°C° 0.2 mm 6 mps 745 mmHg 94%
    04:00 -4°C° 0.1 mm 6 mps 744 mmHg 94%
    05:00 -3°C° 0.1 mm 7 mps 744 mmHg 94%
    06:00 -2°C° 0.1 mm 7 mps 744 mmHg 94%
    07:00 -2°C° 0 mm 7 mps 744 mmHg 93%
    08:00 -2°C° 0 mm 6 mps 744 mmHg 92%
    09:00 -2°C° 0 mm 6 mps 745 mmHg 91%
    10:00 -2°C° 0 mm 6 mps 745 mmHg 92%
    11:00 -2°C° 0 mm 6 mps 745 mmHg 93%
    12:00 -2°C° 0 mm 6 mps 746 mmHg 94%
    13:00 -2°C° 0 mm 6 mps 746 mmHg 95%
    14:00 -1°C° 0 mm 5 mps 746 mmHg 95%
    15:00 -1°C° 0 mm 5 mps 746 mmHg 96%
    16:00 -1°C° 0 mm 4 mps 746 mmHg 96%
    17:00 -1°C° 0 mm 4 mps 747 mmHg 97%
    18:00 0°C° 0 mm 3 mps 747 mmHg 97%
    19:00 0°C° 0 mm 3 mps 747 mmHg 97%
    20:00 0°C° 0 mm 3 mps 747 mmHg 97%
    21:00 0°C° 0 mm 3 mps 747 mmHg 97%
    22:00 0°C° 0 mm 3 mps 747 mmHg 97%
    23:00 0°C° 0 mm 3 mps 747 mmHg 97%

    28 January, Tuesday

    Time Temperature Precipitation Wind Pressure Humidity
    00:00 0°C° 0 mm 3 mps 747 mmHg 97%
    01:00 0°C° 0.1 mm 3 mps 747 mmHg 98%
    02:00 0°C° 0.1 mm 3 mps 747 mmHg 98%
    03:00 0°C° 0.1 mm 3 mps 747 mmHg 98%
    04:00 0°C° 0.1 mm 3 mps 747 mmHg 97%
    05:00 0°C° 0.1 mm 3 mps 747 mmHg 97%
    06:00 -1°C° 0.1 mm 4 mps 747 mmHg 97%
    07:00 0°C° 0 mm 3 mps 747 mmHg 97%
    08:00 -1°C° 0 mm 3 mps 747 mmHg 97%
    09:00 -1°C° 0 mm 3 mps 747 mmHg 98%
    10:00 -1°C° 0.2 mm 3 mps 747 mmHg 98%
    11:00 -1°C° 0.2 mm 3 mps 747 mmHg 98%
    12:00 -1°C° 0.2 mm 3 mps 747 mmHg 98%
    13:00 -1°C° 0 mm 3 mps 747 mmHg 98%
    14:00 -1°C° 0 mm 3 mps 747 mmHg 98%
    15:00 -1°C° 0 mm 3 mps 747 mmHg 98%
    16:00 -1°C° 0 mm 3 mps 747 mmHg 98%
    17:00 -1°C° 0 mm 2 mps 748 mmHg 98%
    18:00 -1°C° 0 mm 2 mps 748 mmHg 98%
    19:00 -1°C° 0 mm 2 mps 748 mmHg 97%
    20:00 -1°C° 0 mm 3 mps 748 mmHg 97%
    21:00 -1°C° 0 mm 3 mps 748 mmHg 97%
    22:00 -1°C° 0.1 mm 3 mps 748 mmHg 97%
    23:00 -1°C° 0.1 mm 2 mps 748 mmHg 97%

    29 January, Wednesday

    Time Temperature Precipitation Wind Pressure Humidity
    00:00 -2°C° 0.1 mm 2 mps 749 mmHg 97%
    01:00 -2°C° 0.1 mm 2 mps 748 mmHg 97%
    02:00 -2°C° 0.1 mm 2 mps 748 mmHg 97%
    03:00 -2°C° 0.1 mm 3 mps 748 mmHg 97%
    04:00 -2°C° 0.1 mm 3 mps 748 mmHg 96%
    05:00 -2°C° 0.1 mm 3 mps 748 mmHg 96%
    06:00 -2°C° 0.1 mm 3 mps 748 mmHg 96%
    07:00 -2°C° 0.1 mm 3 mps 748 mmHg 96%
    08:00 -2°C° 0.1 mm 3 mps 748 mmHg 96%
    09:00 -2°C° 0.1 mm 3 mps 749 mmHg 95%
    10:00 -2°C° 0 mm 3 mps 748 mmHg 96%
    11:00 -1°C° 0 mm 3 mps 748 mmHg 96%
    12:00 -1°C° 0 mm 3 mps 748 mmHg 96%
    13:00 -1°C° 0.1 mm 3 mps 748 mmHg 97%
    14:00 -1°C° 0.1 mm 3 mps 748 mmHg 97%
    15:00 -1°C° 0.1 mm 4 mps 747 mmHg 98%
    16:00 -1°C° 0.1 mm 4 mps 747 mmHg 98%
    17:00 -1°C° 0.1 mm 4 mps 747 mmHg 97%
    18:00 -1°C° 0.1 mm 4 mps 747 mmHg 97%
    19:00 -2°C° 0.1 mm 4 mps 747 mmHg 97%
    20:00 -2°C° 0.1 mm 4 mps 747 mmHg 97%
    21:00 -2°C° 0.1 mm 4 mps 746 mmHg 96%
    22:00 -2°C° 0.1 mm 5 mps 746 mmHg 96%
    23:00 -4°C° 0.1 mm 5 mps 745 mmHg 95%
    Show more